This demonstration page uses our WeatherBlox Daily Observations layout. Learn more.

Left ArrowRight Arrow

Hourly Observations for February 24, 2018

Temp ( °F °C ) Dew Point ( °F °C ) Humidity (%) Winds ( mph kmh ) Pressure ( in mb ) Visibility ( mi km ) Precip ( " mm )
12:54 am 00:54 Cloudy with Mist and Fog 24 -4.4 21 -6.1 88 88 ENE 12 19 30.23 1024 3 5 0.00 0.00
1:54 am 01:54 Cloudy with Mist and Fog 23 -5 21 -6.1 92 92 NE 14 22 30.16 1021 3 5 0.00 0.00
2:46 am 02:46 Cloudy with Mist and Fog 22 -5.6 20 -6.7 92 92 NE 10 17 30.18 1022 4 6 0.00 0.00
2:54 am 02:54 Cloudy with Light Snow 22 -5.6 21 -6.1 96 96 NE 10 17 30.14 1021 3 5 0.00 0.03
3:29 am 03:29 Cloudy with Mist and Fog 22 -5.6 21 -6.1 96 96 NNE 10 17 30.18 1022 4 6 0.01 0.25
3:54 am 03:54 Cloudy with Mist and Fog 22 -5.6 20 -6.7 92 92 NNE 13 20 30.10 1019 3 5 0.01 0.25
4:06 am 04:06 Cloudy with Mist and Fog 22 -5.6 20 -6.7 92 92 NE 12 19 30.15 1021 3 4 0.00 0.00
4:54 am 04:54 Cloudy with Mist and Fog 22 -5.6 20 -6.7 92 92 NE 8 13 30.09 1019 3 4 0.00 0.00
5:14 am 05:14 Cloudy with Light Freezing Rain 22 -5.6 21 -6.1 96 96 NE 6 9 30.12 1020 2 3 0.00 0.03
5:43 am 05:43 Cloudy with Light Freezing Rain 23 -5 21 -6.1 92 92 NE 7 11 30.12 1020 2 3 0.01 0.25
5:54 am 05:54 Cloudy with Mist and Fog 23 -5 21 -6.1 92 92 ENE 9 15 30.07 1018 2 3 0.01 0.25
6:03 am 06:03 Cloudy with Light Freezing Rain 23 -5 21 -6.1 92 92 NE 7 11 30.12 1020 2 3 0.00 0.03
6:47 am 06:47 Cloudy with Light Snow 24 -4.4 22 -5.6 91 91 NE 6 9 30.09 1019 2 3 0.01 0.25
6:54 am 06:54 Cloudy with Light Snow 24 -4.4 22 -5.6 91 91 ENE 6 9 30.04 1017 2 2 0.02 0.51
7:24 am 07:24 Cloudy with Light Freezing Rain 24 -4.4 23 -5 96 96 NE 7 11 30.06 1018 2 3 0.01 0.25
7:40 am 07:40 Cloudy with Light Freezing Rain 24 -4.4 23 -5 96 96 NE 6 9 30.06 1018 2 2 0.01 0.25
7:49 am 07:49 Cloudy with Mist and Fog 25 -4 23 -5 93 93 NNE 5 7 30.06 1018 1 2 0.02 0.51
7:54 am 07:54 Cloudy with Mist and Fog 25 -3.9 23 -5 92 92 N 6 9 30.02 1017 2 2 0.02 0.51
8:49 am 08:49 Cloudy with Light Freezing Rain 25 -4 25 -4 100 100 Calm 30.06 1018 1 2 0.01 0.25
8:54 am 08:54 Cloudy with Light Freezing Rain 25 -3.9 24 -4.4 96 96 Calm 30.01 1016 1 2 0.01 0.25
9:15 am 09:15 Cloudy with Mist and Fog 25 -3.9 24 -4.4 96 96 Calm 30.03 1017 1 2 0.01 0.25
9:22 am 09:22 Cloudy with Light Freezing Rain 26 -3.3 24 -4.4 92 92 Calm 30.03 1017 1 2 0.01 0.25
9:30 am 09:30 Cloudy with Light Freezing Rain 26 -3.3 24 -4.4 92 92 Calm 30.00 1016 1 2 0.01 0.25
9:54 am 09:54 Cloudy with Mist and Fog 27 -2.8 24 -4.4 89 89 NNE 5 7 29.93 1014 2 2 0.02 0.51
10:11 am 10:11 Cloudy with Mist and Fog 26 -3.3 24 -4.4 92 92 N 6 9 29.97 1015 2 3 0.00 0.00
10:26 am 10:26 Cloudy with Mist and Fog 27 -2.8 24 -4.4 89 89 N 9 15 29.94 1014 2 3 0.00 0.03
10:54 am 10:54 Cloudy with Mist and Fog 27 -2.8 25 -3.9 92 92 NNW 9 15 29.90 1013 2 3 0.00 0.03
11:54 am 11:54 Cloudy with Mist and Fog 27 -2.8 25 -3.9 92 92 NW 9 15 29.90 1012 2 3 0.00 0.00
12:52 pm 12:52 Cloudy with Light Snow 27 -3 25 -4 93 93 Calm 29.88 1012 2 3 0.00 0.03
12:54 pm 12:54 Cloudy with Light Snow 27 -2.8 25 -3.9 92 92 Calm 29.85 1011 2 3 0.00 0.03
1:32 pm 13:32 Cloudy with Light Snow 27 -2.8 25 -3.9 92 92 Calm 29.83 1010 3 4 0.00 0.03
1:54 pm 13:54 Cloudy with Mist and Fog 28 -2.2 25 -3.9 88 88 W 3 6 29.83 1010 4 6 0.00 0.03
2:54 pm 14:54 Cloudy 28 -2.2 25 -3.9 88 88 W 8 13 29.79 1009 10 16 0.00 0.00
3:08 pm 15:08 Cloudy 29 -1.7 25 -3.9 85 85 W 8 13 29.80 1009 10 16 0.00 0.00
3:54 pm 15:54 Cloudy 29 -1.7 25 -3.9 85 85 W 9 15 29.76 1008 9 14 0.00 0.00
4:54 pm 16:54 Cloudy 30 -1.1 26 -3.3 85 85 W 12 19 29.77 1008 8 13 0.00 0.00
5:09 pm 17:09 Cloudy 30 -1.1 26 -3.3 85 85 WSW 14 22 29.80 1009 8 13 0.00 0.00
5:54 pm 17:54 Partly Cloudy 30 -1.1 26 -3.3 85 85 WSW 9 15 29.77 1008 7 11 0.00 0.00
6:54 pm 18:54 Clear 29 -1.7 25 -3.9 85 85 SSW 6 9 29.79 1009 8 13 0.00 0.00
7:54 pm 19:54 Clear 26 -3.3 23 -5 88 88 SSW 6 9 29.81 1009 7 11 0.00 0.00
8:54 pm 20:54 Clear 31 -0.6 24 -4.4 76 76 W 13 20 29.83 1010 10 16 0.00 0.00
9:54 pm 21:54 Clear 30 -1.1 22 -5.6 72 72 W 18 30 29.86 1011 10 16 0.00 0.00
10:54 pm 22:54 Clear 28 -2.2 20 -6.7 72 72 W 10 17 29.90 1012 10 16 0.00 0.00
11:54 pm 23:54 Clear 26 -3.3 19 -7.2 75 75 W 9 15 29.93 1014 10 16 0.00 0.00

Powered by AerisWeather